Regional Weather Roundup
Issued by NWS Charleston, SC

Home | Current Version | Previous Version | Text Only | Print | Product List | Glossary On
Versions: 1 2 3 4 5 6 7 8 9 10 11 12 13 14 15 16 17 18 19 20 21 22 23 24 25 26 27 28 29 30 31 32 33 34 35 36 37 38 39 40 41 42 43 44 45 46 47 48 49 50
879
ASUS42 KCHS 062227
RWRCHS

REGIONAL WEATHER ROUNDUP
NATIONAL WEATHER SERVICE CHARLESTON SC
500 PM EST TUE DEC 06 2016

NOTE: "FAIR" INDICATES FEW OR NO CLOUDS BELOW 12,000 FEET WITH NO
SIGNIFICANT WEATHER AND/OR OBSTRUCTIONS TO VISIBILITY.

NOT ALL STATIONS ARE QUALITY CONTROLLED. USE DATA WITH CAUTION...
ESPECIALLY DEWPOINT OBSERVATIONS.

SCZ027-030-031-034>040-042>050-062300-
...SOUTHEAST SOUTH CAROLINA...

CITY           SKY/WX    TMP DP  RH WIND       PRES   REMARKS
N CHARLESTON   MOCLDY    71  64  78 NW18      29.73R
WATERFRONT PRK   N/A     71  69  93 SW5       29.69R
MOUNT PLEASANT FAIR      72  68  88 SW5       29.72R
JOHNS ISLAND   FAIR      68  68 100 S8        29.73R FOG
PINOPOLIS      NOT AVBL
MONCKS CORNER  FAIR      61  57  88 N8        29.76R
SUMMERVILLE    FAIR      64  64 100 NW7       29.76R
BEAUFORT MCAS  PTCLDY    75  65  70 W9        29.72R
BEAUFORT ARPT  FAIR      70  68  94 SW6       29.73R FOG
HILTON HEAD IS PTCLDY    75  70  83 S7        29.73R
WALTERBORO     CLEAR     70  70 100 NW13      29.76R
ALLENDALE      FAIR      64  57  77 NW9G15    29.77R

...SOUTHERN MIDLANDS AND PEE DEE...

CITY           SKY/WX    TMP DP  RH WIND       PRES   REMARKS
GEORGETOWN     NOT AVBL
KINGSTREE      CLOUDY    52  50  93 NW9       29.78R
ORANGEBURG     CLOUDY    54  52  93 NW7       29.77R
BARNWELL       NOT AVBL
AIKEN          CLOUDY    48  46  93 NW5       29.84R
MANNING        CLOUDY    52  50  93 NW9       29.78R
COLUMBIA       CLOUDY    51  49  92 NW6       29.80R
SUMTER         NOT AVBL
FLORENCE       CLOUDY    52  51  97 NW7       29.75R
MYRTLE BEACH   MOCLDY    64  61  88 W15       29.72R
N MYRTLE BEACH NOT AVBL

$$

GAZ063-065-086>088-099>101-113>116-118-119-134>141-150-062300-
...SOUTHEAST GEORGIA...

CITY           SKY/WX    TMP DP  RH WIND       PRES   REMARKS
SAVANNAH ARPT  FAIR      77  59  53 W12       29.73R
HUNTER AAF     NOT AVBL
FORT STEWART   NOT AVBL
STATESBORO     NOT AVBL
SYLVANIA       FAIR     N/A N/A N/A NW7       29.77R
CLAXTON        FAIR      73  58  60 SW8       29.77R

...CSRA...CENTRAL AND FAR SOUTHEAST GEORGIA...

CITY           SKY/WX    TMP DP  RH WIND       PRES   REMARKS
THOMSON        CLOUDY    54  54 100 CALM      29.86R
AUGUSTA-BUSH   CLOUDY    57  53  86 N10       29.80R
AUGUSTA-DANIEL CLOUDY    53  50  89 N8        29.81R
SWAINSBORO     FAIR      70  59  68 W7        29.78R
VIDALIA        FAIR      73  59  60 W9        29.78R
EASTMAN        FAIR      72  42  34 W5        29.82R
HAZLEHURST     FAIR      74  58  58 W3        29.79R
ALMA           NOT AVBL
WAYCROSS       FAIR      77  53  43 W9        29.80R
JESUP          FAIR      77  55  47 W6        29.78R
BAXLEY         FAIR      73  59  60 W7        29.78R
BRUNSWICK      FAIR      77  59  53 W7        29.77R
SAINT SIMONS   FAIR      77  58  51 W8        29.75R

$$

SCZ027-028-034-036>038-045-046-048>050-GAZ119-141-062300-
...LAKE AND SUPPLEMENTAL COASTAL OBSERVATIONS...

STATION/POSITION TIME  TEMP    WIND        PRES    WAVE   SWELL
                       AIR SEA DIR/SP/G            HT/PER HT/PER/DIR
                 (UTC) (F)     (DEG/KT/KT) (MB)    (FT/S) (FT/S/D)
WINYAH BAY       2130   70     260/  6     1005.0R
LAKE MURRAY      2220   48      CALM  /  7 1009.1
ACE BASIN NERRS  2145   72        CALM     1006.0R
FORT PULASKI     2200   76 62  260/  6/  8 1006.9
SAPELO ISLAND    2200   76     260/ 10     1007.0

$$

ANZ835-935-AMZ111-154-330-350-352-354-370-450-454-472-062300-
...C-MAN AND BUOY OBSERVATIONS...

STATION/POSITION TIME  TEMP    WIND        PRES    WAVE   SWELL
                       AIR SEA DIR/SP/G            HT/PER HT/PER/DIR
                 (UTC) (F)     (DEG/KT/KT) (MB)    (FT/S) (FT/S/D)
BUOY 41004       2150   74 74  240/ 21/ 23 1005.3R   8/ 8   2/190/15
BUOY 41008       2150   68 65  200/ 10/ 12 1006.7R   4/ 7   3/120/ 7
FOLLY BEACH CMAN 2200   66     220/ 11/ 14 1006.8R
CAPERS NEARSHORE NOT AVBL
FRIPP NEARSHORE  2208   65 62  230/  8/ 12 1006.5R


STATION/POSITION TIME  TEMP    WIND        PRES    WAVE   SWELL
                       AIR SEA DIR/SP/G            HT/PER HT/PER/DIR
                 (UTC) (F)     (DEG/KT/KT) (MB)    (FT/S) (FT/S/D)
5E ST. MARYS GA  2200      66                N/A     3/ 7
FRYING PAN BUOY  2210   74 74  240/ 27/ 35 1005.1
BUOY 41025       2150   74 76  120/ 12/ 16 1002.1R  11/ 8  11/ 40/ 8
CAPE LOOKOUT NC  2200   65     230/  9/ 13 1003.1R
BUOY 41002       2150   75 74  200/ 23/ 27 1009.1F   8/ 7   2/320/11
BUOY 41010       NOT AVBL
ST AUGUSTINE FL  2200   78 68  240/  8/ 11 1009.9R


$$




USA.gov is the U.S. government's official web portal to all federal, state and local government web resources and services.